Location: Brantley
(31.5822°N, 86.2569°W)
Time: 17:44:07
(UTC+00:00)

Transit 2A Rocket - Pass Details

Date: 17 February 2026
Orbit: 583 x 900 km, 66.7° (Epoch: 12 March)

Event Time Altitude Azimuth Distance (km) Brightness Sun altitude
Rises 06:33:05 0° 345° (NNW) 3,318 - -68.9°
Reaches altitude 10° 06:35:54 10° 356° (N) 2,329 - -68.6°
Maximum altitude 06:40:33 30° 57° (ENE) 1,290 - -68.2°
Drops below altitude 10° 06:44:49 10° 118° (ESE) 2,133 - -67.7°
Sets 06:47:16 0° 129° (SE) 2,993 - -67.4°
